GSAT0227 (GALILEO 30)

Last updated on Thu Dec 11 2025 00:02:35 GMT+0000 (Coordinated Universal Time)

1 59600U 24079C 25342.95048883 .00000009 00000+0 00000+0 0 9990 2 59600 54.9946 106.4003 0003262 114.1820 245.8160 1.70474719 10123
UTC large
Height (km)
Speed (km/s)
/
Latitude / Longitude
Inclination (degrees)
Orbital Period (minutes)
Azimuth
Elevation
Range (km)
Doppler Factor

Next 0 passes for location: London (51.5072 / 0.1276)

Sorry there are no passes over London.